ARIANE 2 DEB, 33574

Orbit data source: Space-Track

ARIANE 2 DEB, 33574 is space debris in HEO originally from a launch on Fri, 27 Jan 1989 UTC launched from the French Guiana (FRGUI). Debris objects in space refer to the collection of defunct objects orbiting the Earth. Examples of debris include non-operational satellites, rocket bodies, and fragments generated from explosions, collisions, or faulty payload assembly.

Loading next visibility...
Identifier
33574, 1989-006BS
Orbit
HEO
Country
Flag of FRFR
Related business
Manufacturer
EADS/LV
Mission
Spacecraft
Bus & Motor
Unknown
Mass
Unknown
Launch date (UTC)
1989-01-27 (37 years ago)
Launch vehicle
Unknown
Launch site
French Guiana (FRGUI)
Object type
Payload
Rocket body
Debris
Shape & HBR
Unknown shape, 0.3 m
Radar Cross Section
Medium (>0.1 m² and <1 m²)

Expand to show TLE details & history
Last TLE update: 6 days ago

TLE from 6 days ago
0 ARIANE 2 DEB
1 33574U 89006BS  25344.44541370  .00000230  00000-0  62532-2 0  9996
2 33574   7.9591 219.8175 7103694 155.7154  17.4545  2.29246493165241
Epoch: 2025-12-10T10:41Z
TLE epoch observation values (Epoch: 2025-12-10T10:41:23.743Z)
Latitude
-7.42271°
Longitude
-131.06486°
Altitude
6,183.032 km
Speed
6.86 km/s
True Right ascension
07h 14m 47s
True Declination
-7° 23' 52"
Sunlit
Object was in daylight at epoch
Visualization orbit readout
Latitude
Unknown
Longitude
Unknown
Altitude
Unknown
Speed
Unknown
Apparent Right ascension
Unknown
Apparent Declination
Unknown
Sunlit
N/A
Visualization observer readout
Local Sidereal Time
12:24:04
Azimuth
Unknown
Elevation
Unknown
Doppler factor
Unknown
Orbital elements
Apogee altitude
35,185.527 km
Perigee altitude
660.172 km
Semi-major axis
24,300.987 km
Eccentricity
0.71037
Inclination
7.9591°
RAAN
219.8175°
Arg. of periapsis
155.7154°
True anomaly
93.7368°
Mean anomaly
17.4545°
Eccentric anomaly
47.42794°
Mean motion
0.57294 °/min
Orbital period
628.34 mins
BSTAR
0.0062532
Loading maneuver chart data...
Computing Atmospheric mass density...
Loading historical data...
Loading historical data...
Loading historical data...
Loading historical data...
Loading historical data...
Loading historical data...
Loading historical data...

Documentation

Showing up to 5 results
|